Time,TemperatureF,DewpointF,PressureIn,WindDirection,WindDirectionDegrees,WindSpeedMPH,WindSpeedGustMPH,Humidity,HourlyPrecipIn,Conditions,Clouds,dailyrainin,SolarRadiationWatts/m^2,SoftwareType,DateUTC
2013-04-02 00:02:00,40.0,30.0,-100.00,SE,129,2.0,4.0,67,0.00,,,0.00,1.000000,,2013-04-02 06:02:00,
2013-04-02 00:12:00,40.0,30.0,-100.00,SE,129,2.0,4.0,67,0.00,,,0.00,1.000000,,2013-04-02 06:12:00,
2013-04-02 00:32:00,37.0,29.0,-100.00,East,95,1.0,4.0,74,0.00,,,0.00,1.000000,,2013-04-02 06:32:00,
2013-04-02 00:42:00,37.0,29.0,-100.00,East,95,1.0,4.0,74,0.00,,,0.00,1.000000,,2013-04-02 06:42:00,
2013-04-02 00:52:00,37.0,29.0,-100.00,East,95,1.0,4.0,74,0.00,,,0.00,1.000000,,2013-04-02 06:52:00,
2013-04-02 01:02:00,37.0,29.0,-100.00,East,95,1.0,4.0,74,0.00,,,0.00,1.000000,,2013-04-02 07:02:00,
2013-04-02 01:11:00,37.0,29.0,-100.00,East,95,1.0,4.0,74,0.00,,,0.00,1.000000,,2013-04-02 07:11:00,
2013-04-02 02:42:00,34.0,29.0,-100.00,NE,56,2.0,6.0,83,-99.99,,,0.00,1.000000,,2013-04-02 08:42:00,
2013-04-02 02:52:00,34.0,29.0,-100.00,NE,56,2.0,6.0,83,-99.99,,,0.00,1.000000,,2013-04-02 08:52:00,
2013-04-02 03:01:00,34.0,29.0,-100.00,NE,56,2.0,6.0,83,-99.99,,,0.00,1.000000,,2013-04-02 09:01:00,
2013-04-02 03:12:00,34.0,29.0,-100.00,NE,56,2.0,6.0,83,-99.99,,,0.00,1.000000,,2013-04-02 09:12:00,
2013-04-02 03:33:00,33.0,28.0,-100.00,NNE,33,3.0,6.0,83,0.00,,,0.00,1.000000,,2013-04-02 09:33:00,
2013-04-02 03:43:00,33.0,28.0,-100.00,NNE,33,3.0,6.0,83,0.00,,,0.00,1.000000,,2013-04-02 09:43:00,
2013-04-02 03:52:00,33.0,28.0,-100.00,NNE,33,3.0,6.0,83,0.00,,,0.00,1.000000,,2013-04-02 09:52:00,
2013-04-02 04:03:00,33.0,28.0,-100.00,NNE,33,3.0,6.0,83,0.00,,,0.00,1.000000,,2013-04-02 10:03:00,
2013-04-02 04:12:00,33.0,28.0,-100.00,NNE,33,3.0,6.0,83,0.00,,,0.00,1.000000,,2013-04-02 10:12:00,
2013-04-02 04:33:00,31.0,27.0,-100.00,NNE,23,3.0,6.0,86,0.00,,,0.00,1.000000,,2013-04-02 10:33:00,
2013-04-02 04:42:00,31.0,27.0,-100.00,NNE,23,3.0,6.0,86,0.00,,,0.00,1.000000,,2013-04-02 10:42:00,
2013-04-02 04:52:00,31.0,27.0,-100.00,NNE,23,3.0,6.0,86,0.00,,,0.00,1.000000,,2013-04-02 10:52:00,
2013-04-02 05:02:00,31.0,27.0,-100.00,NNE,23,3.0,6.0,86,0.00,,,0.00,1.000000,,2013-04-02 11:02:00,
2013-04-02 05:11:00,31.0,27.0,-100.00,NNE,23,3.0,6.0,86,0.00,,,0.00,1.000000,,2013-04-02 11:11:00,
2013-04-02 05:33:00,31.0,29.0,-100.00,East,83,3.0,5.0,91,0.00,,,0.00,1.000000,,2013-04-02 11:33:00,
2013-04-02 05:43:00,31.0,29.0,-100.00,East,83,3.0,5.0,91,0.00,,,0.00,1.000000,,2013-04-02 11:43:00,
2013-04-02 05:52:00,31.0,29.0,-100.00,East,83,3.0,5.0,91,0.00,,,0.00,1.000000,,2013-04-02 11:52:00,
2013-04-02 06:02:00,31.0,29.0,-100.00,East,83,3.0,5.0,91,0.00,,,0.00,1.000000,,2013-04-02 12:02:00,
2013-04-02 06:11:00,31.0,29.0,-100.00,East,83,3.0,5.0,91,0.00,,,0.00,1.000000,,2013-04-02 12:11:00,
2013-04-02 07:42:00,30.0,27.0,-100.00,NE,45,2.0,6.0,90,-99.99,,,0.00,1.000000,,2013-04-02 13:42:00,
2013-04-02 07:52:00,30.0,27.0,-100.00,NE,45,2.0,6.0,90,-99.99,,,0.00,1.000000,,2013-04-02 13:52:00,
2013-04-02 08:02:00,30.0,27.0,-100.00,NE,45,2.0,6.0,90,-99.99,,,0.00,1.000000,,2013-04-02 14:02:00,
2013-04-02 08:12:00,30.0,27.0,-100.00,NE,45,2.0,6.0,90,-99.99,,,0.00,1.000000,,2013-04-02 14:12:00,
2013-04-02 08:42:00,29.0,27.0,-100.00,NE,55,2.0,5.0,92,0.00,,,0.00,1.000000,,2013-04-02 14:42:00,
2013-04-02 08:52:00,29.0,27.0,-100.00,NE,55,2.0,5.0,92,0.00,,,0.00,1.000000,,2013-04-02 14:52:00,
2013-04-02 09:02:00,29.0,27.0,-100.00,NE,55,2.0,5.0,92,0.00,,,0.00,1.000000,,2013-04-02 15:02:00,
2013-04-02 09:11:00,29.0,27.0,-100.00,NE,55,2.0,5.0,92,0.00,,,0.00,1.000000,,2013-04-02 15:11:00,
2013-04-02 09:33:00,30.0,28.0,-100.00,NNE,26,2.0,6.0,92,0.00,,,0.00,14.000000,,2013-04-02 15:33:00,
2013-04-02 09:43:00,30.0,28.0,-100.00,NNE,26,2.0,6.0,92,0.00,,,0.00,14.000000,,2013-04-02 15:43:00,
2013-04-02 09:57:00,30.0,28.0,-100.00,NNE,26,2.0,6.0,92,0.00,,,0.00,14.000000,,2013-04-02 15:57:00,
2013-04-02 10:03:00,30.0,28.0,-100.00,NNE,26,2.0,6.0,92,0.00,,,0.00,14.000000,,2013-04-02 16:03:00,
2013-04-02 10:13:00,30.0,28.0,-100.00,NNE,26,2.0,6.0,92,0.00,,,0.00,14.000000,,2013-04-02 16:13:00,
2013-04-02 10:44:00,37.0,29.0,-100.00,NNE,19,3.0,7.0,74,0.00,,,-99.99,107.000000,,2013-04-02 16:44:00,
2013-04-02 10:53:00,37.0,29.0,-100.00,NNE,19,3.0,7.0,74,0.00,,,-99.99,107.000000,,2013-04-02 16:53:00,
2013-04-02 11:04:00,37.0,29.0,-100.00,NNE,19,3.0,7.0,74,0.00,,,-99.99,107.000000,,2013-04-02 17:04:00,
2013-04-02 11:43:00,47.0,32.0,-100.00,NNE,16,4.0,9.0,55,-99.99,,,0.00,253.000000,,2013-04-02 17:43:00,
2013-04-02 11:55:00,47.0,32.0,-100.00,NNE,16,4.0,9.0,55,-99.99,,,0.00,253.000000,,2013-04-02 17:55:00,
2013-04-02 12:03:00,47.0,32.0,-100.00,NNE,16,4.0,9.0,55,-99.99,,,0.00,253.000000,,2013-04-02 18:03:00,
2013-04-02 12:12:00,47.0,32.0,-100.00,NNE,16,4.0,9.0,55,-99.99,,,0.00,253.000000,,2013-04-02 18:12:00,
2013-04-02 12:43:00,57.0,35.0,-100.00,NNW,336,3.0,7.0,44,0.00,,,0.00,534.000000,,2013-04-02 18:43:00,
2013-04-02 12:55:00,57.0,35.0,-100.00,NNW,336,3.0,7.0,44,0.00,,,0.00,534.000000,,2013-04-02 18:55:00,
2013-04-02 13:02:00,57.0,35.0,-100.00,NNW,336,3.0,7.0,44,0.00,,,0.00,534.000000,,2013-04-02 19:02:00,
2013-04-02 13:12:00,57.0,35.0,-100.00,NNW,336,3.0,7.0,44,0.00,,,0.00,534.000000,,2013-04-02 19:12:00,
2013-04-02 13:45:00,61.0,35.0,-100.00,SSW,197,4.0,11.0,37,0.00,,,0.00,727.000000,,2013-04-02 19:45:00,
2013-04-02 14:03:00,61.0,35.0,-100.00,SSW,197,4.0,11.0,37,0.00,,,0.00,727.000000,,2013-04-02 20:03:00,
2013-04-02 14:12:00,61.0,35.0,-100.00,SSW,197,4.0,11.0,37,0.00,,,0.00,727.000000,,2013-04-02 20:12:00,
2013-04-02 14:44:00,63.0,33.0,-100.00,NNE,17,5.0,13.0,33,0.00,,,0.00,504.000000,,2013-04-02 20:44:00,
2013-04-02 14:54:00,63.0,33.0,-100.00,NNE,17,5.0,13.0,33,0.00,,,0.00,504.000000,,2013-04-02 20:54:00,
2013-04-02 15:03:00,63.0,33.0,-100.00,NNE,17,5.0,13.0,33,0.00,,,0.00,504.000000,,2013-04-02 21:03:00,
2013-04-02 15:12:00,63.0,33.0,-100.00,NNE,17,5.0,13.0,33,0.00,,,0.00,504.000000,,2013-04-02 21:12:00,
2013-04-02 16:34:00,65.0,30.0,-100.00,NNW,338,4.0,15.0,27,-99.99,,,0.00,799.000000,,2013-04-02 22:34:00,
2013-04-02 16:44:00,65.0,30.0,-100.00,NNW,338,4.0,15.0,27,-99.99,,,0.00,799.000000,,2013-04-02 22:44:00,
2013-04-02 16:53:00,65.0,30.0,-100.00,NNW,338,4.0,15.0,27,-99.99,,,0.00,799.000000,,2013-04-02 22:53:00,
2013-04-02 17:02:00,65.0,30.0,-100.00,NNW,338,4.0,15.0,27,-99.99,,,0.00,799.000000,,2013-04-02 23:02:00,
2013-04-02 17:12:00,65.0,30.0,-100.00,NNW,338,4.0,15.0,27,-99.99,,,0.00,799.000000,,2013-04-02 23:12:00,
2013-04-02 17:43:00,65.0,30.0,-100.00,East,94,5.0,12.0,27,0.00,,,0.00,716.000000,,2013-04-02 23:43:00,
2013-04-02 17:54:00,65.0,30.0,-100.00,East,94,5.0,12.0,27,0.00,,,0.00,716.000000,,2013-04-02 23:54:00,
2013-04-02 18:03:00,65.0,30.0,-100.00,East,94,5.0,12.0,27,0.00,,,0.00,716.000000,,2013-04-03 00:03:00,
2013-04-02 18:12:00,65.0,30.0,-100.00,East,94,5.0,12.0,27,0.00,,,0.00,716.000000,,2013-04-03 00:12:00,
2013-04-02 18:47:00,66.0,32.0,-100.00,NE,50,4.0,12.0,28,0.00,,,0.00,580.000000,,2013-04-03 00:47:00,
2013-04-02 18:55:00,66.0,32.0,-100.00,NE,50,4.0,12.0,28,0.00,,,0.00,580.000000,,2013-04-03 00:55:00,
2013-04-02 19:03:00,66.0,32.0,-100.00,NE,50,4.0,12.0,28,0.00,,,0.00,580.000000,,2013-04-03 01:03:00,
2013-04-02 19:12:00,66.0,32.0,-100.00,NE,50,4.0,12.0,28,0.00,,,0.00,580.000000,,2013-04-03 01:12:00,
2013-04-02 19:34:00,64.0,34.0,-100.00,East,101,3.0,9.0,32,0.00,,,0.00,404.000000,,2013-04-03 01:34:00,
2013-04-02 19:42:00,64.0,34.0,-100.00,East,101,3.0,9.0,32,0.00,,,0.00,404.000000,,2013-04-03 01:42:00,
2013-04-02 19:53:00,64.0,34.0,-100.00,East,101,3.0,9.0,32,0.00,,,0.00,404.000000,,2013-04-03 01:53:00,
2013-04-02 20:03:00,64.0,34.0,-100.00,East,101,3.0,9.0,32,0.00,,,0.00,404.000000,,2013-04-03 02:03:00,
2013-04-02 20:12:00,64.0,34.0,-100.00,East,101,3.0,9.0,32,0.00,,,0.00,404.000000,,2013-04-03 02:12:00,
2013-04-02 20:34:00,57.0,35.0,-100.00,SE,129,2.0,7.0,43,0.00,,,0.00,172.000000,,2013-04-03 02:34:00,
2013-04-02 20:44:00,57.0,35.0,-100.00,SE,129,2.0,7.0,43,0.00,,,0.00,172.000000,,2013-04-03 02:44:00,
2013-04-02 20:53:00,57.0,35.0,-100.00,SE,129,2.0,7.0,43,0.00,,,0.00,172.000000,,2013-04-03 02:53:00,
2013-04-02 21:03:00,57.0,35.0,-100.00,SE,129,2.0,7.0,43,0.00,,,0.00,172.000000,,2013-04-03 03:03:00,
2013-04-02 21:12:00,57.0,35.0,-100.00,SE,129,2.0,7.0,43,0.00,,,0.00,172.000000,,2013-04-03 03:12:00,
2013-04-02 21:44:00,48.0,34.0,-100.00,SE,133,1.0,5.0,58,0.00,,,0.00,13.000000,,2013-04-03 03:44:00,
2013-04-02 21:54:00,48.0,34.0,-100.00,SE,133,1.0,5.0,58,0.00,,,0.00,13.000000,,2013-04-03 03:54:00,
2013-04-02 22:03:00,48.0,34.0,-100.00,SE,133,1.0,5.0,58,0.00,,,0.00,13.000000,,2013-04-03 04:03:00,
2013-04-02 22:12:00,48.0,34.0,-100.00,SE,133,1.0,5.0,58,0.00,,,0.00,13.000000,,2013-04-03 04:12:00,
2013-04-02 22:33:00,44.0,34.0,-100.00,ESE,112,2.0,4.0,69,0.00,,,0.00,1.000000,,2013-04-03 04:33:00,
2013-04-02 22:43:00,44.0,34.0,-100.00,ESE,112,2.0,4.0,69,0.00,,,0.00,1.000000,,2013-04-03 04:43:00,
2013-04-02 22:53:00,44.0,34.0,-100.00,ESE,112,2.0,4.0,69,0.00,,,0.00,1.000000,,2013-04-03 04:53:00,
2013-04-02 23:02:00,44.0,34.0,-100.00,ESE,112,2.0,4.0,69,0.00,,,0.00,1.000000,,2013-04-03 05:02:00,
2013-04-02 23:12:00,44.0,34.0,-100.00,ESE,112,2.0,4.0,69,0.00,,,0.00,1.000000,,2013-04-03 05:12:00,
2013-04-02 23:42:00,40.0,33.0,-100.00,ESE,113,2.0,4.0,76,0.00,,,0.00,1.000000,,2013-04-03 05:42:00,
2013-04-02 23:52:00,40.0,33.0,-100.00,ESE,113,2.0,4.0,76,0.00,,,0.00,1.000000,,2013-04-03 05:52:00,